THORAD DELTA 1 DEB, 8164

Orbit data source: Space-Track

THORAD DELTA 1 DEB, 8164 is space debris in SSO originally from a launch on Fri, 15 Nov 1974 UTC launched from the Air Force Western Test Range (AFWTR). Debris objects in space refer to the collection of defunct objects orbiting the Earth. Examples of debris include non-operational satellites, rocket bodies, and fragments generated from explosions, collisions, or faulty payload assembly.

Loading next visibility...
Identifier
8164, 1974-089AE
Orbit
SSO
Country
Flag of USUS
Related business
Manufacturer
Unknown
Mission
Spacecraft
Bus & Motor
Unknown
Mass
Unknown
Launch date (UTC)
1974-11-15 (51 years ago)
Launch vehicle
Unknown
Launch site
Air Force Western Test Range (AFWTR)
Object type
Payload
Rocket body
Debris
Shape & HBR
Unknown shape, 0.3 m
Radar Cross Section
Medium (>0.1 m² and <1 m²)

Expand to show TLE details & history
Last TLE update: 8 hours ago

TLE from 8 hours ago
0 THORAD DELTA 1 DEB
1 08164U 74089AE  25287.87667870 -.00000011  00000-0  24910-3 0  9992
2 08164 101.6085  57.5586 0121035  87.1591  63.7485 12.28969141284472
Epoch: 2025-10-14T21:02Z
TLE epoch observation values (Epoch: 2025-10-14T21:02:25.039Z)
Latitude
27.26114°
Longitude
-95.65813°
Altitude
1,515.208 km
Speed
7.128 km/s
True Right ascension
16h 14m 25s
True Declination
27° 08' 05"
Sunlit
Object was in daylight at epoch
Visualization orbit readout
Latitude
Unknown
Longitude
Unknown
Altitude
Unknown
Speed
Unknown
Apparent Right ascension
Unknown
Apparent Declination
Unknown
Sunlit
N/A
Visualization observer readout
Local Sidereal Time
00:00:32
Azimuth
Unknown
Elevation
Unknown
Doppler factor
Unknown
Orbital elements
Apogee altitude
1,647.253 km
Perigee altitude
1,455.306 km
Semi-major axis
7,929.416 km
Eccentricity
0.0121
Inclination
101.6085°
RAAN
57.5586°
Arg. of periapsis
87.1591°
True anomaly
65.00069°
Mean anomaly
63.7485°
Eccentric anomaly
64.37377°
Mean motion
3.07384 °/min
Orbital period
117.12 mins
BSTAR
0.0002491
Loading maneuver chart data...
Computing Atmospheric mass density...

Documentation

Showing up to 5 results
|